Regional Weather Roundup
Issued by NWS Little Rock, AR

Home | Current Version | Previous Version | Text Only | Print | Product List | Glossary Off
Versions: 1 2 3 4 5 6 7 8 9 10 11 12 13 14 15 16 17 18 19 20 21 22 23 24 25 26 27

000
ASUS44 KLZK 300605
RWRLZK

WEATHER ROUNDUP FOR ARKANSAS
NATIONAL WEATHER SERVICE LITTLE ROCK AR
100 AM CDT SAT APR 30 2016

NOTE: "FAIR" INDICATES FEW OR NO CLOUDS BELOW 12,000 FEET WITH NO
SIGNIFICANT WEATHER AND/OR OBSTRUCTIONS TO VISIBILITY.

ARZ001-003-010-029-300700-
NORTHWEST ARKANSAS

CITY           SKY/WX    TMP DP  RH WIND       PRES   REMARKS
FAYETTEVILLE   LGT RAIN  64  62  93 SE12G22   29.69F
6HR MIN TEMP:  63; 6HR MAX TEMP:  66; 6HR PCP:  0.93;

FORT SMITH     LGT RAIN  66  63  90 E6        29.66F
6HR MIN TEMP:  66; 6HR MAX TEMP:  68; 6HR PCP:  1.17;

HARRISON       RAIN      61  61 100 E6        29.78R FOG
6HR MIN TEMP:  58; 6HR MAX TEMP:  62; 6HR PCP:  0.26;

BENTONVILLE    CLOUDY    64  59  82 E7        29.72R
6HR MIN TEMP:  63; 6HR MAX TEMP:  64; 6HR PCP:  0.86;

ROGERS         LGT RAIN  62  61  96 E10       29.71F
6HR MIN TEMP:  61; 6HR MAX TEMP:  63; 6HR PCP:  0.66;

SILOAM SPGS    CLOUDY    63  55  77 E6        29.70R
6HR MIN TEMP:  63; 6HR MAX TEMP:  66; 6HR PCP:  1.07;

HIGHFILL       CLOUDY    64  64 100 SE9       29.71R
6HR MIN TEMP:  64; 6HR MAX TEMP:  66; 6HR PCP:  0.79;

$$

ARZ004-005-016-300700-
NORTH CENTRAL ARKANSAS

CITY           SKY/WX    TMP DP  RH WIND       PRES   REMARKS
BATESVILLE     CLOUDY    64  63  94 E8        29.82S
6HR MIN TEMP:  64; 6HR MAX TEMP:  64; 6HR PCP:  0.64;

FLIPPIN        CLOUDY   N/A N/A N/A E5        29.76R
                                      6HR PCP:  0.29;

MTN HOME       RAIN      62  61  96 SE7       29.78S FOG
6HR MIN TEMP:  60; 6HR MAX TEMP:  62; 6HR PCP:  0.24;

$$

ARZ040-041-300700-
WEST CENTRAL ARKANSAS

CITY           SKY/WX    TMP DP  RH WIND       PRES   REMARKS
MENA           CLOUDY    68  68 100 W7        29.67R
$$

ARZ009-017-025-026-028-300700-
NORTHEAST ARKANSAS

CITY           SKY/WX    TMP DP  RH WIND       PRES   REMARKS
CORNING        HVY RAIN  63  63 100 NE7       29.87F
JONESBORO      RAIN      63  62  97 E9        29.85F FOG
6HR MIN TEMP:  63; 6HR MAX TEMP:  65; 6HR PCP:  0.43;

NEWPORT        RAIN      64  64 100 E13       29.81F
6HR MIN TEMP:  64; 6HR MAX TEMP:  67; 6HR PCP: TRACE;

WALNUT RIDGE   CLOUDY    63  59  88 NE9       29.84F
6HR MIN TEMP:  63; 6HR MAX TEMP:  64;

BLYTHEVILLE    LGT RAIN  63  61  93 CALM      29.88F
6HR MIN TEMP:  63; 6HR MAX TEMP:  66; 6HR PCP:  0.05;

$$

ARZ022-023-033-042-044-300700-
CENTRAL ARKANSAS

CITY           SKY/WX    TMP DP  RH WIND       PRES   REMARKS
LITTLE ROCK    TSTM      66  65  96 E8        29.78S FOG
6HR MIN TEMP:  66; 6HR MAX TEMP:  70; 6HR PCP:  1.35;

N LITTLE ROCK    N/A     64  63  97 E13G22    29.77R
6HR MIN TEMP:  64; 6HR MAX TEMP:  67;

JACKSONVILLE   LGT RAIN  64  64 100 E12       29.78R FOG
SEARCY         RAIN      65  65 100 E9        29.81F
6HR MIN TEMP:  65; 6HR MAX TEMP:  66; 6HR PCP:  1.13;

HOT SPRINGS    HVY RAIN  68  65  90 S12G24    29.74R FOG
6HR MIN TEMP:  66; 6HR MAX TEMP:  69; 6HR PCP:  1.09;

RUSSELLVILLE   HVY RAIN  66  64  93 E8        29.73R FOG
6HR MIN TEMP:  65; 6HR MAX TEMP:  67; 6HR PCP:  1.45;

$$

ARZ036-300700-
EAST ARKANSAS

CITY           SKY/WX    TMP DP  RH WIND       PRES   REMARKS
WEST MEMPHIS   LGT RAIN  64  63  96 SE5       29.83F
6HR MIN TEMP:  63; 6HR MAX TEMP:  65; 6HR PCP:  0.02;

$$

ARZ050-053-066-070-073-300700-
SOUTHWEST ARKANSAS

CITY           SKY/WX    TMP DP  RH WIND       PRES   REMARKS
ARKADELPHIA    HVY RAIN  68  68 100 S23G29    29.79R VSB 1
6HR MIN TEMP:  66; 6HR MAX TEMP:  69;

CAMDEN         HVY RAIN  66  64  94 SE3       29.74F
TEXARKANA      TSTM      66  64  93 S12       29.70S FOG
6HR MIN TEMP:  66; 6HR MAX TEMP:  71; 6HR PCP:  1.49;

EL DORADO      RAIN      68  68 100 SE8       29.75R FOG
6HR MIN TEMP:  67; 6HR MAX TEMP:  69; 6HR PCP:  0.17;

DE QUEEN       LGT RAIN  65  64  97 S14       29.63R
6HR MIN TEMP:  65; 6HR MAX TEMP:  70;

$$

ARZ056-057-069-300700-
SOUTHEAST ARKANSAS

CITY           SKY/WX    TMP DP  RH WIND       PRES   REMARKS
PINE BLUFF     TSTM      67  66  97 SE7       29.78F
6HR MIN TEMP:  66; 6HR MAX TEMP:  68; 6HR PCP:  0.29;

STUTTGART      CLOUDY    68  63  83 CALM      29.81S THUNDER
6HR MIN TEMP:  66; 6HR MAX TEMP:  68; 6HR PCP:  0.57;

MONTICELLO     LGT RAIN  70  68  93 SE7       29.77F
6HR MIN TEMP:  68; 6HR MAX TEMP:  70; 6HR PCP:  0.20;


$$






USA.gov is the U.S. government's official web portal to all federal, state and local government web resources and services.